Theta_e
319 332 331 333 340 341 342 339 338 341 341 342 344 344 344 342 344 350 353 354 354 349 339 342 343 341 340 340 340 341 341 341 344 341 337 332 328 324 318 315 315 316 316 316 317 319 320 321 321
319 331 329 337 344 346 340 338 339 341 341 343 344 343 346 347 344 343 348 350 350 349 346 343 343 344 342 340 336 337 337 338 339 335 331 329 325 318 315 315 316 316 316 318 320 322 324 324 324
318 324 327 339 340 345 343 337 341 340 338 336 341 346 348 347 346 343 346 345 347 344 344 343 343 342 342 339 335 335 335 335 331 331 329 326 320 315 315 316 316 316 318 320 323 325 325 324 324
327 328 328 337 341 339 340 343 338 338 338 338 342 347 349 345 345 344 343 345 349 346 341 338 341 339 339 336 335 339 338 330 330 328 326 319 314 315 316 317 317 317 319 321 324 325 325 325 325
327 328 332 336 337 336 340 338 336 339 336 342 344 346 348 345 343 341 345 347 349 347 341 337 338 336 335 333 336 336 330 329 329 327 320 314 314 316 317 317 317 318 319 321 323 324 325 325 325
327 328 338 340 337 334 339 334 334 335 335 338 344 344 347 345 341 343 345 345 345 346 345 341 335 333 334 333 334 333 329 329 327 319 314 314 315 317 318 318 319 319 320 322 323 324 325 325 325
327 329 334 336 337 338 339 339 337 335 338 341 343 345 344 342 340 342 345 345 344 343 343 343 341 336 331 331 333 332 331 327 320 314 314 316 317 318 318 319 320 320 321 322 323 325 325 325 326
327 329 331 335 337 337 340 337 335 338 345 348 346 347 343 343 345 345 344 343 341 342 341 342 343 340 340 333 334 331 329 324 316 313 314 316 317 318 319 320 321 321 322 322 324 325 325 326 327
327 330 332 331 337 339 335 338 347 348 346 347 345 343 344 345 345 345 343 341 340 339 340 340 338 335 336 337 335 334 330 320 314 316 315 316 321 329 328 328 328 327 325 324 324 326 327 327 327
333 336 333 335 337 342 338 341 350 347 347 347 345 346 345 344 343 341 341 341 339 339 337 338 339 339 338 339 336 337 333 321 320 329 330 328 330 331 332 331 329 328 330 329 326 328 328 328 327
334 334 333 338 338 340 349 347 345 347 343 341 342 340 342 342 341 338 339 338 337 336 336 336 336 337 336 336 337 335 333 330 328 330 333 330 331 333 333 333 331 330 332 332 332 329 328 328 326
335 334 334 336 337 346 347 344 340 339 339 338 338 339 338 338 337 337 336 334 334 333 334 333 335 335 334 334 333 332 331 329 327 327 327 331 330 333 330 329 331 331 330 329 329 329 327 327 325
335 336 337 343 345 345 342 341 339 338 338 338 337 337 335 334 334 334 335 335 334 332 331 332 331 331 331 332 331 331 330 328 327 328 329 330 329 325 328 329 327 328 329 329 327 328 328 326 323
335 336 339 341 343 343 344 343 340 337 337 336 336 333 332 333 333 332 333 333 332 331 331 329 328 328 329 329 329 330 328 328 325 324 325 324 322 320 321 323 326 327 328 327 327 328 327 326 323
334 338 338 341 342 342 342 343 340 337 336 336 333 332 330 330 330 329 329 329 326 323 323 326 325 324 322 322 322 323 322 325 325 325 324 323 323 324 324 324 324 324 324 324 325 325 322 321 321
336 335 339 332 330 340 342 346 340 337 337 336 332 329 329 329 328 328 327 324 324 324 322 321 321 322 322 321 324 323 321 322 320 320 318 319 318 317 318 318 321 322 322 323 322 320 320 321 320
336 339 335 336 330 334 339 346 340 340 337 334 330 327 328 327 327 325 324 324 324 322 322 321 320 318 319 318 317 318 318 318 321 321 321 316 315 317 317 317 317 316 316 315 317 317 318 319 319
337 337 339 339 335 333 338 342 342 339 337 331 330 329 329 327 324 325 325 324 324 323 322 321 320 318 317 315 316 316 316 316 317 317 316 315 314 313 315 314 315 317 318 318 319 317 318 318 318
330 336 336 334 331 336 335 341 339 338 334 332 331 331 328 326 327 327 326 325 323 323 322 321 320 319 318 315 315 315 314 315 316 316 314 315 314 313 312 312 313 315 315 316 318 319 318 318 318
331 333 336 334 335 336 334 339 339 337 335 332 331 332 330 329 328 326 325 325 323 323 322 321 319 317 317 315 315 315 313 315 314 313 313 312 311 312 310 311 312 313 314 314 316 316 317 318 318
331 333 333 332 334 332 334 339 339 334 332 331 332 332 330 329 326 324 324 323 322 321 320 319 318 316 316 316 313 315 312 313 313 311 311 311 310 310 309 310 312 312 314 314 315 315 315 317 317
331 332 331 331 331 334 335 337 338 335 333 332 332 331 329 327 324 323 322 320 319 320 318 316 317 315 315 314 313 312 312 312 312 313 312 312 313 311 311 311 312 310 312 311 313 314 314 315 316
331 331 331 332 332 334 336 341 341 332 333 334 332 331 326 324 322 321 320 319 320 319 317 316 315 314 313 311 311 312 312 311 312 312 312 312 311 311 312 312 312 310 311 312 312 312 313 314 314
332 332 330 330 330 332 335 336 339 337 336 334 330 325 324 323 321 319 321 320 319 318 317 315 314 313 312 310 312 312 311 310 311 311 310 311 310 310 311 310 310 310 311 312 312 311 311 312 313
330 331 332 332 333 327 330 340 336 333 333 332 329 326 324 323 321 322 321 320 319 316 315 314 313 312 311 311 311 309 309 310 310 310 309 309 310 309 309 309 310 310 311 311 311 312 312 312 313
330 330 330 330 328 327 336 340 335 330 330 329 328 327 323 322 322 321 319 318 315 314 312 312 312 312 311 310 309 309 309 308 307 306 307 308 309 309 308 310 310 310 310 309 310 309 310 312 312
330 329 326 329 328 329 339 334 332 329 329 327 326 325 323 322 320 318 317 316 314 313 313 313 312 312 311 309 309 308 307 306 306 305 306 306 307 307 309 310 309 309 309 308 309 309 310 312 312
327 327 329 329 330 332 336 335 332 330 328 327 326 322 321 319 318 316 314 314 314 313 312 311 310 310 309 309 308 307 306 306 306 305 304 304 306 308 308 308 308 308 309 308 308 308 310 310 311
329 330 330 331 332 334 335 336 328 327 325 324 322 320 319 317 316 315 314 313 312 311 310 310 309 309 309 308 308 307 305 305 305 305 304 304 306 307 308 307 307 306 308 308 310 310 310 310 311
328 328 329 331 330 335 334 336 327 325 323 323 321 320 318 317 315 313 313 311 310 309 309 308 308 308 308 309 307 306 305 305 305 304 304 304 306 306 307 308 308 308 308 309 309 309 310 311 311
Wind_Speed
13 9 15 13 4 4 11 9 0 19 19 23 30 25 25 25 12 10 18 16 19 17 12 10 9 7 7 7 6 5 4 4 3 2 3 4 6 8 9 10 11 12 13 15 16 16 16 16 16
8 7 9 5 4 6 4 13 20 16 22 17 31 30 31 20 25 19 14 11 16 14 9 10 8 7 5 4 5 4 3 2 1 1 2 4 6 8 9 10 10 12 13 14 15 16 16 16 16
7 2 8 5 1 5 7 12 23 34 29 14 11 21 15 14 21 16 18 13 11 10 7 9 8 7 6 4 4 4 3 2 3 4 5 6 8 9 10 10 10 10 11 12 14 15 15 16 17
5 11 8 8 13 22 29 19 27 33 22 5 22 16 20 20 19 17 13 13 17 12 11 8 8 7 6 5 4 4 3 3 4 5 7 8 10 10 9 8 8 8 8 9 11 12 13 14 15
9 10 5 8 21 8 27 42 51 20 33 8 24 17 18 17 16 15 18 18 16 14 11 10 6 6 5 5 5 4 2 4 5 6 7 8 9 8 8 7 6 5 4 5 6 9 10 13 16
13 18 9 1 25 14 36 49 44 25 14 31 29 21 9 10 14 19 21 23 19 16 13 11 9 7 5 4 4 2 1 3 4 5 6 7 7 7 6 5 3 2 2 1 4 8 11 14 17
14 12 4 13 10 14 25 25 23 16 23 12 24 18 13 14 15 20 23 21 17 14 13 12 9 7 4 3 2 2 2 1 2 3 5 6 6 5 4 3 3 3 3 4 6 9 12 15 15
20 11 5 17 5 3 18 14 32 23 3 22 18 14 17 15 20 19 18 20 18 18 14 10 7 5 7 3 3 3 2 1 2 3 3 3 3 4 5 6 7 6 6 8 8 10 13 14 14
14 7 6 4 13 11 23 12 21 20 32 40 36 29 19 18 18 20 18 17 18 15 15 12 8 5 2 1 2 1 2 1 1 3 4 3 6 4 6 7 7 11 14 15 13 11 11 7 13
6 12 2 10 15 13 22 8 29 14 24 25 28 22 19 22 22 22 20 19 12 12 8 9 9 11 7 3 3 8 2 2 4 1 4 2 8 16 7 10 18 19 18 12 8 6 6 7 6
6 3 3 15 12 18 19 23 24 25 14 19 18 19 22 22 22 23 21 20 16 12 13 15 8 12 8 8 5 3 2 6 7 10 11 8 9 18 8 9 21 18 15 5 6 3 6 5 5
3 8 9 7 6 18 16 13 26 30 17 19 18 17 15 17 18 17 18 15 14 14 14 12 8 14 13 11 9 3 6 4 6 8 12 13 21 16 12 17 5 6 5 1 7 9 9 9 10
3 6 12 13 21 23 24 23 19 22 19 18 19 19 21 22 20 20 18 18 15 13 12 14 13 10 10 6 8 5 4 5 8 10 14 12 16 20 21 18 24 19 15 12 18 21 18 13 10
8 7 10 12 18 17 22 17 11 12 16 18 19 21 21 21 16 15 14 17 13 13 13 10 12 11 9 7 4 2 3 5 5 14 18 21 22 22 24 24 26 24 25 28 27 26 28 18 22
27 17 20 4 10 13 27 18 13 12 14 20 22 19 17 15 12 13 13 13 14 16 16 19 17 18 14 13 11 6 7 7 9 10 13 15 18 17 17 19 21 24 25 28 26 25 22 19 20
25 15 8 26 38 18 23 7 19 16 15 20 19 17 16 14 14 14 14 15 16 19 15 13 14 13 13 13 11 12 16 11 16 14 15 12 13 13 13 15 17 18 17 17 14 20 21 19 20
6 10 11 10 42 29 7 13 18 20 17 23 19 16 14 14 15 14 14 15 14 11 13 13 14 13 12 13 9 10 10 12 15 7 7 18 20 15 15 15 14 15 15 18 20 21 18 19 17
10 5 9 15 30 7 8 14 19 24 22 21 18 15 13 12 14 14 14 12 10 11 10 13 13 17 12 13 12 10 9 10 12 10 13 11 12 10 11 15 16 19 17 19 19 18 15 16 13
9 4 3 3 8 14 5 14 15 26 23 20 16 12 11 11 13 11 9 9 9 7 11 12 15 16 16 15 14 13 14 10 11 7 10 8 10 12 14 18 16 15 14 16 17 17 15 13 9
13 5 5 4 10 18 14 8 11 24 24 22 16 13 12 11 13 9 12 4 6 6 5 8 12 18 16 18 15 15 13 15 7 12 14 10 18 15 18 16 16 15 17 17 15 18 18 16 11
9 11 12 17 10 17 5 12 17 17 19 16 11 16 13 13 13 13 9 8 7 9 8 13 13 17 13 13 16 15 15 16 19 19 17 17 16 16 13 16 15 16 16 15 16 17 14 13 10
9 11 16 18 17 10 8 2 4 5 7 8 13 18 17 16 13 11 10 7 14 5 12 13 12 10 12 18 17 18 16 17 18 15 14 14 15 14 15 17 13 16 15 15 17 15 12 9 10
12 16 16 20 19 5 0 5 4 13 10 6 14 14 18 15 12 8 8 11 8 8 9 13 12 13 16 23 19 18 17 17 16 17 14 12 9 11 14 15 12 13 13 12 11 10 8 7 9
11 16 23 18 9 4 5 1 7 8 6 13 12 15 13 8 4 7 8 13 10 8 11 15 16 19 25 23 17 19 22 19 18 18 14 12 12 12 15 14 13 11 10 9 8 7 7 7 9
20 18 11 10 11 11 7 14 8 15 15 14 12 9 8 6 5 7 7 10 9 15 14 8 15 19 20 16 19 23 19 16 17 18 18 16 14 15 14 12 10 8 7 7 7 5 5 5 5
12 13 10 15 14 15 18 6 4 13 13 9 9 9 5 6 11 15 10 12 15 11 12 16 16 16 17 21 21 21 18 18 19 19 17 12 12 13 13 10 6 7 7 8 9 8 4 3 3
7 12 13 11 16 9 8 8 3 4 7 10 12 5 6 14 12 12 14 11 9 15 16 14 15 20 20 22 18 18 19 18 19 18 16 12 11 10 8 7 7 8 6 7 11 12 8 8 7
13 14 8 7 8 11 9 13 5 9 8 10 9 20 14 9 12 16 18 14 14 16 18 18 19 17 21 19 16 17 19 24 17 18 16 12 9 7 9 10 7 5 8 7 10 14 10 10 9
9 11 7 4 2 4 4 6 8 14 10 11 14 15 14 15 12 14 16 16 18 19 19 20 20 17 17 17 20 24 24 16 16 19 15 13 9 9 11 11 11 11 6 7 9 12 12 12 12
12 7 9 6 10 9 15 5 9 11 11 14 14 13 10 12 16 15 17 18 19 17 17 19 16 16 17 15 21 20 19 19 18 19 15 11 10 9 8 7 6 8 7 7 7 4 4 6 9
Wind_Direction
313 346 5 292 50 165 247 145 259 83 69 71 78 77 74 59 86 110 100 79 93 78 96 109 102 99 96 99 102 105 119 127 138 103 100 115 120 121 118 114 109 104 97 92 86 77 68 60 54
306 288 268 83 75 295 104 159 95 93 54 86 99 85 71 70 87 96 108 93 86 84 102 107 97 91 96 95 107 121 138 169 208 116 133 143 136 127 123 118 113 106 101 91 80 71 63 55 49
289 201 265 119 163 270 262 105 74 33 118 122 73 62 46 54 79 102 109 102 90 85 99 91 87 90 82 89 99 111 137 164 167 171 169 160 148 147 143 132 121 110 97 88 78 65 56 48 42
287 246 237 212 191 214 247 84 76 32 356 180 99 75 67 75 88 99 86 109 93 94 51 67 81 76 81 102 109 107 148 171 171 176 171 161 159 157 151 136 123 112 102 93 75 57 44 36 30
256 262 246 261 291 96 75 72 75 82 322 16 89 100 88 91 89 95 107 102 101 76 63 43 60 75 90 110 124 136 186 182 174 176 170 166 166 162 152 146 139 122 107 87 52 32 24 19 17
266 251 80 60 251 81 85 88 81 77 236 271 114 104 94 111 100 107 100 90 90 90 73 45 57 66 76 106 135 127 182 182 180 176 171 172 173 173 168 165 159 165 167 104 17 13 10 8 8
260 286 115 217 301 56 121 100 121 186 225 223 125 96 124 112 108 94 92 82 83 71 48 62 41 46 77 89 88 85 102 163 176 171 177 179 183 191 197 213 231 254 269 308 336 347 351 356 3
260 294 295 216 170 174 88 119 131 160 190 54 118 124 118 119 90 95 85 81 80 70 59 71 76 57 65 71 105 107 53 188 206 197 198 205 231 251 261 264 265 261 291 301 315 326 337 348 9
259 268 346 340 135 71 44 22 117 95 82 75 79 98 111 106 108 107 95 87 80 77 53 65 38 35 36 90 153 88 125 164 100 29 315 290 294 309 283 284 278 299 313 303 305 326 353 12 15
85 303 156 13 39 118 122 127 97 71 77 65 65 73 76 86 77 78 75 75 84 86 44 88 79 26 51 111 98 117 145 124 127 148 257 244 303 260 217 277 289 285 288 295 296 360 10 26 350
51 237 76 45 56 102 98 62 63 118 68 67 74 68 69 70 71 73 70 74 71 78 72 61 80 42 28 53 106 144 213 257 261 240 228 224 265 263 253 279 264 264 262 251 249 263 215 219 293
19 359 62 43 24 73 79 73 69 73 87 83 81 82 86 92 90 88 78 74 70 80 66 62 66 48 58 68 63 59 127 229 227 234 241 234 237 266 261 267 282 22 350 220 189 235 211 241 296
152 78 78 70 77 83 85 79 86 76 84 87 86 83 87 85 83 81 83 88 72 74 65 52 50 63 66 48 48 49 59 250 230 241 244 262 243 256 268 271 287 290 280 276 274 266 250 256 295
98 122 128 142 134 127 104 95 60 87 97 89 88 86 85 79 83 93 96 84 81 75 65 41 41 38 34 40 63 64 343 283 263 259 262 270 274 271 269 262 270 272 276 284 280 272 267 275 302
52 31 7 119 151 124 119 64 99 120 111 103 91 88 87 84 88 84 83 82 70 67 65 50 27 25 25 27 13 353 347 305 297 283 285 281 285 283 279 275 272 273 278 276 277 281 298 285 290
76 58 21 313 321 329 222 165 133 150 132 118 102 95 95 89 87 91 88 84 76 67 54 54 53 37 23 20 4 350 353 348 343 334 341 348 335 321 313 307 301 294 293 285 267 277 289 280 283
332 124 156 223 255 254 1 141 149 164 140 115 108 104 100 101 98 92 86 81 71 61 55 49 22 45 29 356 12 340 340 327 322 324 336 330 331 336 341 338 331 324 311 300 295 292 291 280 289
187 141 117 215 269 286 109 111 155 152 125 115 117 119 117 115 104 91 73 74 78 63 49 34 27 10 29 6 6 346 342 341 312 315 326 335 330 333 325 319 318 308 309 311 308 307 293 284 279
1 143 63 306 301 311 344 144 157 125 126 116 123 123 122 123 102 96 108 105 75 32 44 28 19 13 8 6 359 350 340 341 326 346 333 290 303 310 311 298 287 287 293 303 306 294 287 285 261
322 353 80 277 249 255 294 194 144 141 122 122 142 144 143 142 139 120 94 95 70 53 34 360 357 354 348 10 1 341 347 331 343 347 335 320 328 316 319 303 291 289 291 290 295 296 292 265 235
23 355 343 325 257 273 294 37 48 37 87 123 122 133 124 117 111 104 90 65 31 16 356 5 358 6 358 354 346 330 323 307 327 320 320 316 320 311 320 306 298 286 284 289 290 298 296 264 230
346 352 324 312 308 332 92 262 137 62 60 148 131 107 114 113 101 96 87 46 336 356 23 11 2 8 344 342 342 332 336 328 317 328 311 320 321 333 320 303 312 301 299 293 289 299 296 274 251
344 327 297 293 284 68 352 124 79 150 229 144 103 106 113 111 102 105 3 40 12 2 17 5 347 339 334 341 338 332 319 318 318 315 316 319 341 331 311 323 312 318 311 309 301 306 302 276 261
295 319 310 295 303 302 126 351 40 31 101 108 106 106 103 105 75 353 67 21 20 9 354 342 357 349 341 348 344 334 335 337 339 338 335 338 333 305 318 319 320 317 325 330 336 334 308 284 272
353 335 324 347 327 335 346 67 39 64 64 104 123 120 112 68 21 57 55 23 4 356 351 1 343 349 350 338 340 342 348 351 347 340 332 336 337 324 335 339 340 342 357 5 354 343 331 316 292
341 346 344 325 316 301 46 61 32 59 90 103 119 125 77 53 42 42 39 16 350 14 357 345 354 353 338 333 345 353 345 337 332 327 328 324 311 325 331 345 359 13 28 17 16 344 335 329 353
9 337 328 286 277 273 122 93 84 131 90 85 109 72 37 59 47 26 350 5 36 19 8 9 4 352 346 353 356 344 344 349 343 347 343 338 332 339 10 23 20 36 39 29 19 25 37 69 87
2 328 348 332 322 338 103 80 75 107 108 91 61 78 76 59 50 18 56 42 24 9 354 346 345 348 359 0 350 344 349 345 345 352 348 347 1 33 57 43 45 58 61 45 39 42 60 61 73
17 8 350 359 302 338 274 78 77 85 62 78 88 72 59 57 20 30 33 23 13 4 360 3 6 3 4 356 352 350 352 6 1 359 2 14 26 53 67 50 36 40 47 39 37 38 36 48 46
59 20 10 349 343 39 328 65 76 59 58 92 92 75 61 24 34 11 22 12 3 7 359 2 10 12 14 2 359 1 11 17 11 9 21 34 39 51 42 43 30 23 32 25 38 37 37 30 31